GFSSGP_prec_cloud_159.txt.gz
Cloud_Cover
5 1 5 5 9 100 100 100 18 8 5 23 89 91 100 100 100 100 100 100 100 100 100 95 100 100 89 7 1 0 0 0 0 0 0 5 5 69 5 93 95 44 5 65 81 71 95 96 100
5 0 0 5 77 100 100 100 100 89 7 5 5 27 99 84 99 100 100 100 100 100 30 63 96 69 70 5 3 1 1 0 0 0 0 5 35 10 33 45 5 5 5 5 12 21 5 5 5
2 5 0 4 51 100 100 100 100 85 5 5 4 4 5 5 18 65 67 100 100 49 89 99 44 58 16 5 4 4 5 2 0 0 0 1 16 98 99 90 5 5 4 8 5 5 4 5 0
0 0 0 0 46 100 100 100 100 7 39 5 40 94 20 5 11 15 5 5 99 100 62 94 100 70 20 5 5 3 5 2 0 0 0 0 1 5 68 100 92 66 90 48 5 5 5 5 5
0 0 0 0 10 100 100 100 93 70 69 21 48 100 6 5 16 100 17 5 3 52 34 62 100 100 91 71 48 5 5 1 0 0 0 0 12 100 62 22 79 36 20 24 7 10 54 81 75
0 0 0 0 0 21 2 98 100 9 74 100 100 95 4 15 5 35 61 62 5 5 12 37 52 100 100 60 5 4 2 2 0 0 0 0 22 90 100 100 45 5 5 100 100 100 100 100 100
0 0 0 0 4 0 1 6 100 24 4 70 97 23 18 94 4 42 6 99 7 5 0 35 76 68 67 22 3 3 5 5 5 5 8 0 5 13 91 12 77 44 35 97 100 100 97 100 100
0 0 0 0 5 0 0 0 0 100 36 2 38 94 6 3 1 11 18 5 100 37 5 33 54 100 97 58 6 0 5 5 5 6 18 6 6 11 5 10 46 50 100 100 100 100 100 100 100
0 0 0 3 0 0 0 0 0 0 38 20 4 6 87 88 12 100 98 2 18 76 17 54 81 91 97 69 56 23 7 17 27 33 36 100 100 85 97 15 60 89 100 100 100 100 100 94 5
0 0 0 0 0 0 0 0 3 1 0 1 85 32 4 84 36 100 100 64 5 93 99 19 93 43 16 81 100 97 100 100 100 97 86 100 100 100 84 92 100 98 31 10 28 25 58 68 5
0 0 0 0 0 0 0 0 0 12 3 0 0 9 20 98 5 41 7 100 0 80 100 94 86 99 70 6 97 100 100 100 76 32 99 100 100 97 71 100 100 20 5 4 2 5 21 5 14
0 0 0 0 0 0 0 0 0 0 7 16 0 0 0 72 94 0 78 100 81 1 95 100 100 56 49 96 88 76 100 7 25 100 100 100 100 100 100 100 97 21 6 13 5 4 5 5 32
0 0 0 0 0 0 0 0 0 0 0 2 4 0 0 0 35 2 5 100 100 99 92 100 100 100 100 84 33 64 100 81 33 100 100 70 100 100 100 100 60 9 6 5 4 3 5 26 65
0 0 0 0 0 0 0 0 0 0 0 1 0 0 0 0 0 45 0 92 100 9 100 100 100 6 58 37 5 3 91 100 64 100 100 100 100 100 100 100 100 65 5 5 3 5 5 1 98
0 0 0 0 0 0 0 0 0 0 0 0 0 0 0 0 0 12 9 0 100 91 2 100 100 97 8 6 3 0 0 74 100 96 100 74 83 16 100 49 29 80 5 18 79 72 89 68 52
0 0 0 0 0 0 0 0 0 0 0 0 0 0 0 0 0 3 14 5 20 9 4 5 83 100 82 99 100 98 33 0 59 100 100 61 74 8 16 18 49 33 31 66 100 98 88 17 100
0 0 0 0 0 0 0 0 0 0 0 0 0 0 0 0 0 0 5 0 15 3 0 0 69 100 99 100 100 100 100 60 0 5 46 100 100 100 100 100 100 95 100 52 90 2 5 45 10
0 0 0 0 0 0 0 0 0 0 5 5 37 43 0 0 0 0 0 0 1 4 0 0 24 97 100 100 100 100 100 100 90 56 4 0 1 6 5 11 6 67 100 53 0 2 5 5 5
1 2 16 2 0 0 0 0 0 0 7 97 7 5 6 0 0 0 0 0 0 0 0 0 36 94 100 100 100 100 100 100 100 100 100 5 4 0 5 0 0 25 47 0 0 5 5 4 4
5 6 1 0 0 0 0 0 0 0 10 100 100 83 0 0 0 0 0 0 0 0 0 0 0 98 100 100 100 100 100 100 100 100 75 1 4 0 0 0 0 0 3 7 29 5 5 5 2
1 36 5 48 1 2 22 0 0 2 25 63 45 5 0 0 0 0 0 0 0 0 0 0 0 0 33 100 100 100 100 100 100 100 92 5 0 0 0 0 2 1 5 5 4 5 5 4 1
0 0 5 5 0 0 96 29 0 0 11 100 100 97 5 0 0 0 0 0 0 0 0 0 0 0 1 8 90 100 100 100 100 100 30 4 0 0 4 0 0 5 5 6 5 5 5 5 5
42 100 0 5 5 45 100 78 0 67 85 53 46 91 100 8 0 0 0 0 0 0 0 0 0 0 5 0 57 95 99 9 2 38 4 0 0 3 5 0 5 5 5 5 5 46 5 5 6
16 90 2 2 0 14 72 79 2 48 18 0 0 5 18 1 28 0 0 0 0 5 0 0 0 0 95 76 5 11 4 14 0 16 49 77 23 8 9 2 4 5 5 7 5 5 65 9 44
58 63 77 36 4 31 66 96 55 61 98 66 1 5 2 16 13 3 0 0 0 0 96 0 0 8 32 98 100 4 0 6 0 1 54 36 70 66 80 65 36 83 82 72 12 100 100 100 100
8 100 100 97 64 54 59 54 100 21 52 92 100 36 82 28 28 69 4 0 1 12 100 0 0 7 0 42 3 6 5 42 98 97 100 100 91 100 100 93 66 95 100 100 100 100 100 100 100
62 9 10 86 38 91 85 100 12 14 100 55 45 58 33 22 80 75 5 0 0 88 100 3 0 1 66 0 0 5 16 81 100 100 100 100 100 100 100 100 100 100 100 100 100 100 100 30 31
91 45 64 13 20 9 83 100 100 100 98 46 31 74 10 67 69 20 0 4 0 100 100 15 0 0 0 10 0 0 0 94 100 100 100 100 100 100 100 100 100 100 100 100 100 100 81 65 6
100 100 100 100 97 99 82 98 100 100 56 6 48 100 92 83 100 51 2 10 16 86 100 2 0 0 0 0 5 0 25 100 100 100 100 100 100 100 100 100 100 100 100 100 100 100 100 100 100
100 100 100 100 100 100 100 100 100 100 19 46 100 100 76 74 98 100 6 100 100 80 100 48 0 4 10 0 0 17 21 69 100 100 100 100 100 100 100 100 100 100 100 100 100 100 100 100 100

GFSSGP_prec_cloud_162.txt.gz
Cloud_Cover
0 0 0 34 91 100 83 100 6 58 32 5 5 5 76 100 100 100 100 100 100 100 100 100 100 100 100 100 89 100 5 5 3 5 2 0 5 0 3 5 1 5 5 4 1 9 29 26 19
0 0 0 6 96 100 100 61 100 51 60 5 24 25 40 100 100 99 100 100 100 95 67 100 100 100 100 100 89 21 5 5 3 5 1 0 0 0 4 5 5 5 5 2 16 4 2 1 4
0 0 0 5 98 100 100 33 100 83 49 5 4 36 29 100 100 99 97 100 100 36 76 96 100 34 34 92 100 100 22 5 0 12 0 0 0 0 0 5 5 35 23 40 5 5 5 5 5
0 0 0 3 100 100 100 96 73 100 100 80 18 3 4 5 97 100 100 100 100 96 68 100 100 95 26 6 94 66 5 5 3 10 0 0 0 0 0 1 5 5 9 5 5 5 5 32 33
0 0 0 3 33 100 100 78 15 100 100 100 87 5 5 5 82 39 60 96 100 100 60 68 100 70 92 100 100 94 30 13 5 5 3 0 0 0 0 3 7 50 5 0 1 5 5 5 15
0 0 0 4 4 3 63 100 5 11 100 74 5 0 0 0 0 85 83 54 25 4 48 45 46 58 22 100 100 93 93 100 20 5 4 2 0 1 4 3 6 24 4 5 5 10 12 99 100
0 0 0 0 5 0 1 15 9 2 7 32 5 0 1 4 0 2 57 97 14 97 46 64 52 80 43 24 97 100 93 100 100 91 50 5 25 89 12 4 1 1 5 5 5 37 78 97 96
0 0 0 0 0 0 0 0 0 0 0 0 0 0 0 2 3 6 97 100 85 5 94 75 65 100 100 57 22 41 97 100 37 64 15 0 3 4 5 73 100 42 54 5 63 7 4 5 7
0 0 0 0 0 3 1 0 0 0 0 0 0 0 0 0 0 4 97 100 100 35 24 54 57 64 100 100 45 15 5 11 14 5 5 7 24 45 100 100 100 99 74 42 100 16 5 5 1
0 0 0 0 0 0 1 0 5 0 0 0 0 0 0 0 0 1 96 100 100 100 28 50 100 96 98 100 53 50 57 54 53 43 40 84 99 100 100 100 100 99 18 100 100 58 5 5 5
0 0 0 0 0 0 0 0 0 0 0 2 0 0 0 0 0 14 47 100 100 30 4 5 87 56 71 98 99 78 96 100 99 98 97 100 100 99 100 100 100 100 100 100 100 22 5 5 5
0 0 0 0 0 0 0 0 0 0 0 0 0 0 0 0 0 4 27 88 100 100 100 8 42 100 100 99 100 100 100 100 100 100 100 100 100 100 100 100 100 100 100 100 100 74 10 5 5
0 0 0 0 0 0 0 0 0 0 0 0 0 0 0 0 0 0 47 31 82 100 100 100 70 81 100 100 97 99 100 85 73 100 100 100 88 100 100 100 100 100 100 100 100 100 84 68 5
0 0 0 0 0 0 0 0 0 0 0 0 0 0 0 0 0 0 0 33 100 100 100 100 100 100 100 100 100 100 41 54 100 100 100 100 54 98 100 100 100 100 100 100 100 100 56 55 62
0 0 0 0 0 0 0 0 0 0 0 0 0 0 0 0 0 0 0 0 1 69 100 100 100 100 68 68 38 34 61 10 24 90 100 100 100 100 100 100 100 100 100 100 100 100 100 50 100
0 0 0 0 0 0 0 0 0 0 0 0 0 0 0 0 0 0 0 2 0 0 85 97 97 100 100 22 9 20 4 3 20 100 100 100 100 100 100 100 100 100 100 100 100 100 100 100 32
0 0 0 0 0 0 0 0 0 0 0 0 0 0 0 0 0 0 0 0 0 0 0 0 4 82 64 88 15 1 8 79 100 100 100 100 100 100 100 100 100 100 100 100 100 100 38 8 4
0 0 0 0 0 0 0 0 0 0 0 0 0 0 0 0 0 0 0 1 0 0 0 0 0 1 97 83 94 8 61 100 100 100 100 100 100 100 100 100 100 100 18 26 20 3 8 18 62
4 2 0 0 0 0 0 0 0 0 0 0 0 0 0 0 0 0 0 4 44 0 0 0 0 0 2 100 100 97 100 100 100 100 100 100 100 100 100 100 100 100 64 100 8 0 5 5 5
6 9 1 0 0 0 0 0 0 0 0 0 0 0 0 0 0 0 0 16 100 44 0 0 12 14 0 14 52 87 100 100 100 100 100 100 100 100 100 100 100 100 100 68 2 0 1 5 1
4 28 4 0 0 0 3 0 0 0 0 0 0 0 2 47 3 0 0 0 49 100 56 6 60 8 9 0 17 48 100 100 100 100 100 100 100 100 100 100 100 100 100 100 47 1 6 16 16
38 1 1 5 58 13 2 1 0 0 0 1 0 1 5 100 90 0 0 0 0 37 100 79 69 3 0 0 3 21 100 100 100 100 100 100 100 100 100 100 70 5 91 100 85 100 100 100 99
5 8 7 16 89 77 0 0 0 0 0 0 0 0 86 100 100 60 68 0 0 0 78 52 4 5 0 0 9 3 100 100 100 100 100 100 100 100 100 87 9 9 100 83 87 98 100 100 100
6 83 5 4 82 62 0 0 35 0 0 0 0 2 0 24 30 35 29 5 0 0 2 100 2 0 0 0 0 1 42 100 100 100 100 100 100 100 100 100 73 90 46 62 58 100 100 99 74
26 56 44 14 5 2 4 12 5 2 3 2 19 3 0 0 1 4 0 39 0 0 0 0 0 0 0 2 0 0 12 44 76 100 100 100 100 100 100 100 100 100 34 100 99 100 100 100 100
66 100 100 93 66 5 5 18 26 0 0 31 5 99 100 70 6 3 4 0 0 0 2 0 0 0 0 1 1 14 0 4 5 100 100 100 100 100 100 100 100 100 99 100 100 100 100 100 100
94 55 94 100 99 90 78 22 5 15 2 0 41 20 2 66 6 16 0 0 0 0 83 74 3 2 0 0 5 3 0 0 0 40 63 90 100 100 100 100 100 100 100 100 100 100 100 100 100
10 100 100 98 85 31 100 100 8 36 100 99 39 34 30 4 61 82 100 51 0 0 100 100 78 30 0 0 0 0 6 7 2 63 97 72 100 100 100 100 100 100 100 100 100 100 100 100 98
100 89 100 98 93 100 84 100 100 82 98 96 100 100 100 97 100 100 100 89 100 1 10 100 63 55 5 0 0 1 5 21 75 18 75 87 100 100 100 100 100 100 100 100 100 100 100 100 100
100 100 100 100 100 100 100 99 100 88 100 100 100 100 100 100 63 10 100 47 46 100 7 79 93 99 5 7 3 4 6 6 99 82 100 100 100 100 100 100 100 100 100 100 100 100 100 100 100

GFSSGP_prec_cloud_165.txt.gz
Cloud_Cover
0 4 5 25 83 100 70 100 5 91 30 5 5 0 1 34 21 99 100 100 100 100 57 100 100 100 100 100 100 27 8 5 5 0 0 0 0 4 0 0 4 2 3 5 5 5 5 2 0
0 0 2 5 79 100 100 100 74 82 90 10 5 5 2 5 5 65 52 79 100 75 81 100 100 98 100 99 97 100 79 6 5 0 0 0 0 5 0 3 5 5 2 5 5 7 7 5 5
0 0 0 17 100 100 100 100 86 94 69 37 5 5 0 4 5 83 97 100 100 95 41 86 100 100 91 62 100 100 51 73 5 0 0 0 0 0 0 0 0 0 3 5 5 3 4 3 14
0 0 0 3 99 100 100 43 50 94 94 5 5 5 5 0 55 90 33 69 100 100 75 52 93 100 70 32 6 62 100 100 5 5 1 3 1 0 0 0 0 5 13 6 5 5 5 5 5
0 0 0 5 40 92 96 17 5 44 78 5 4 0 1 5 12 5 19 97 100 100 50 72 64 77 86 5 94 56 58 88 6 7 5 5 5 0 0 0 0 1 10 3 5 5 8 5 24
0 0 0 5 3 1 34 4 2 5 5 4 0 0 4 1 2 4 3 52 98 100 100 94 80 92 100 98 6 88 95 33 8 5 62 5 5 4 5 5 5 5 0 15 65 94 39 5 9
0 0 0 4 5 0 4 1 0 1 0 0 0 0 0 3 2 1 3 86 60 100 52 100 100 100 100 100 45 5 90 100 100 54 5 5 5 35 21 2 3 2 6 100 100 100 69 10 22
0 0 2 0 0 0 0 0 0 0 0 0 0 0 0 0 0 4 4 61 6 58 55 81 82 61 58 70 13 9 33 8 86 32 20 98 51 53 0 4 0 18 61 65 24 5 5 20 93
0 0 0 0 0 0 0 0 0 0 0 0 0 0 0 0 0 0 4 7 100 58 61 97 68 59 47 98 62 31 5 5 10 9 2 5 31 5 0 5 14 99 100 98 32 38 41 38 5
0 0 0 0 0 0 0 0 0 0 0 0 0 0 0 0 0 0 2 14 58 100 97 62 7 100 100 76 81 82 100 45 32 36 25 28 54 46 25 9 57 100 59 72 100 100 100 86 48
0 0 0 0 0 0 0 0 2 5 4 5 3 0 0 0 0 0 0 11 100 100 92 75 84 20 99 100 92 94 44 100 99 94 86 95 100 39 38 64 99 100 98 98 98 100 84 96 76
0 0 0 0 0 0 0 0 0 0 0 0 3 5 0 0 0 0 0 0 16 100 100 79 96 98 96 99 100 100 100 100 100 100 100 100 100 81 96 100 100 100 100 100 100 93 66 86 100
0 0 0 0 0 0 0 0 0 0 0 0 0 0 0 0 0 12 0 0 0 13 100 100 99 100 92 99 97 100 100 100 75 96 100 98 96 99 100 97 100 100 100 100 100 90 76 96 98
0 0 0 0 0 0 0 0 0 0 0 0 0 0 0 0 2 82 97 19 0 0 0 90 80 100 100 100 100 99 32 100 95 78 94 94 89 100 100 99 100 100 94 78 44 18 30 99 100
0 0 0 0 0 0 0 0 0 0 0 0 0 0 0 0 0 0 4 62 46 0 1 3 92 99 89 82 100 100 74 98 60 41 6 16 99 100 100 100 100 100 100 100 100 100 96 100 100
0 0 0 0 0 0 0 0 0 0 0 0 0 0 0 0 0 0 0 0 1 4 0 0 12 79 100 33 94 100 66 92 60 5 63 5 56 100 100 100 100 100 100 100 100 100 100 100 100
0 0 0 0 0 0 0 0 0 0 0 0 0 0 0 0 0 0 0 0 0 0 0 0 6 100 56 100 66 24 4 94 100 84 68 66 12 71 100 100 100 100 100 100 100 100 100 100 100
0 0 0 0 0 0 0 0 0 0 0 0 0 0 0 0 0 0 0 0 0 0 0 0 0 19 84 5 85 98 69 30 100 100 100 100 100 100 100 100 100 100 100 100 100 100 100 100 100
0 0 0 0 0 0 0 0 0 0 0 0 0 0 0 0 0 0 0 0 2 0 0 0 0 0 0 5 1 100 100 33 63 100 100 100 100 100 100 100 100 100 100 100 100 100 100 100 100
0 0 0 0 0 0 0 0 0 0 0 0 0 0 0 0 0 0 0 0 0 3 3 5 2 1 0 0 0 30 100 84 42 99 100 100 100 100 100 100 100 100 100 100 100 100 100 100 100
0 0 0 0 0 0 0 0 0 0 0 0 0 0 0 0 0 0 0 0 0 1 11 0 5 0 5 0 0 9 85 86 91 98 100 100 100 100 100 100 100 79 100 100 100 100 100 100 100
4 0 1 5 22 4 4 3 0 0 0 0 0 0 0 0 0 0 0 0 0 0 80 90 5 64 63 5 0 0 2 36 68 100 100 100 100 100 100 100 100 100 99 100 100 100 95 96 88
0 5 4 2 4 4 5 4 0 0 0 0 0 0 0 0 0 0 0 0 0 0 0 100 100 99 100 88 0 2 0 0 78 100 100 100 100 100 100 100 100 100 100 100 94 85 100 100 66
4 12 43 32 5 4 0 0 0 0 0 0 0 0 0 0 0 0 2 3 0 0 0 11 100 100 93 94 64 0 0 0 0 98 71 100 100 100 100 100 100 100 100 98 17 29 100 100 100
5 8 13 5 5 4 4 3 0 12 0 0 0 0 0 0 0 0 0 7 0 0 0 0 70 100 100 68 79 21 0 0 0 0 96 100 100 100 100 100 100 100 100 81 62 87 100 100 100
63 5 18 93 25 15 66 8 5 2 4 0 0 0 0 0 0 0 2 0 0 0 2 0 0 58 97 99 95 52 5 0 0 0 2 35 94 100 100 100 100 100 100 100 95 100 100 100 100
5 5 22 90 5 79 29 99 100 83 5 0 0 6 8 7 2 0 0 0 0 0 7 100 25 0 1 96 100 64 98 22 0 0 0 1 4 79 100 100 100 100 100 100 100 100 100 100 100
12 74 82 92 100 84 7 5 31 100 68 5 3 5 43 100 82 70 2 0 1 0 0 13 98 17 0 4 52 78 100 0 2 0 4 7 67 98 93 100 98 100 100 100 100 100 100 100 100
67 87 99 100 100 100 98 67 99 100 100 62 2 5 26 41 91 94 76 10 1 0 1 0 0 9 0 0 2 16 100 75 41 17 13 41 100 99 89 100 100 100 100 100 100 100 100 100 100
100 100 100 100 85 100 100 43 28 100 100 100 9 5 5 40 100 92 2 81 100 61 5 14 4 0 0 0 44 29 18 54 65 56 53 78 100 100 100 100 100 100 100 100 100 100 100 100 100

GFSSGP_prec_cloud_168.txt.gz
Cloud_Cover
4 59 35 5 30 100 100 26 5 7 5 5 5 20 93 100 100 100 70 75 91 96 100 100 97 100 100 100 92 46 100 26 7 5 5 4 0 0 0 0 0 0 0 0 0 4 5 3 4
4 0 43 84 83 100 100 92 5 33 5 4 4 3 4 70 50 100 100 100 92 93 96 63 100 96 100 100 100 40 100 74 5 6 6 5 0 0 0 0 0 0 1 0 0 0 0 0 0
40 0 0 5 100 100 100 17 22 18 5 5 5 50 46 3 5 86 100 100 54 27 99 91 100 99 100 100 100 97 100 92 62 20 42 3 0 0 0 0 0 0 0 0 0 2 5 5 0
5 0 2 5 100 80 84 5 5 5 5 5 5 19 6 2 0 2 33 8 91 90 91 100 100 100 100 100 100 100 100 100 100 100 100 5 4 0 0 0 0 0 2 7 0 0 3 0 0
85 2 5 3 11 66 64 6 0 4 5 0 5 5 5 5 5 0 0 5 22 88 27 100 100 100 100 100 100 100 100 53 11 38 48 5 5 4 1 0 0 0 10 11 0 0 22 24 5
97 22 6 0 5 2 4 4 0 5 5 0 0 3 0 0 3 5 5 1 5 50 80 91 100 100 100 100 100 86 98 42 22 30 24 5 5 7 5 2 0 15 2 1 4 2 6 52 5
99 82 34 5 0 4 3 0 0 0 0 0 0 0 0 0 0 0 0 5 4 50 56 32 89 100 95 6 92 99 58 100 12 32 97 86 13 5 5 5 5 0 0 0 2 5 5 5 5
100 62 89 56 0 0 1 0 0 0 0 0 0 0 0 0 0 0 0 0 26 72 80 99 97 60 100 100 12 33 54 59 21 5 73 100 54 10 5 6 14 0 0 0 5 5 5 5 5
5 40 97 52 1 0 0 0 0 0 0 0 0 0 0 0 0 0 0 0 38 100 100 100 100 99 53 99 100 100 100 84 14 7 4 7 29 14 5 0 1 0 0 0 4 4 5 5 5
0 4 6 5 2 0 2 2 0 0 0 0 0 0 0 0 0 0 1 0 6 76 100 100 100 100 24 34 54 95 20 46 56 47 64 52 40 46 12 0 0 3 3 5 4 5 5 5 5
0 0 0 0 0 0 1 5 5 3 0 0 0 0 0 0 0 0 0 0 0 0 5 86 100 100 4 8 42 96 100 84 64 63 57 57 50 46 39 40 23 7 5 5 5 0 10 5 71
0 0 0 0 0 0 0 0 1 0 0 0 0 0 0 0 0 0 0 0 0 0 0 0 30 83 100 92 61 100 100 41 65 83 46 24 96 100 100 75 45 85 54 42 5 5 5 5 80
0 0 0 0 0 0 0 0 0 0 0 0 0 0 0 0 0 0 0 0 0 0 0 1 0 25 100 100 100 96 100 80 97 82 62 95 100 100 100 100 98 100 99 13 5 5 5 9 65
0 0 0 0 0 0 0 0 0 0 0 0 0 0 0 0 0 0 0 0 0 0 0 0 10 11 37 100 100 100 100 100 99 45 74 87 92 100 100 100 99 95 74 50 5 9 96 89 100
0 0 0 0 0 0 0 0 0 0 0 0 0 0 0 0 0 0 0 0 0 0 0 0 16 22 22 26 100 100 100 100 81 100 93 93 100 100 100 100 78 35 100 84 49 99 100 100 100
0 0 0 0 0 0 0 0 0 0 0 0 0 0 0 0 0 0 0 0 0 0 2 2 3 30 18 18 33 100 100 100 80 100 100 100 100 99 80 99 100 100 96 64 45 100 100 100 100
0 0 0 0 0 0 0 0 0 0 0 0 0 0 0 0 0 0 0 0 79 4 0 12 0 7 10 15 15 96 56 100 100 95 100 100 100 100 100 61 56 78 58 96 100 100 100 100 100
0 0 0 0 0 0 0 0 0 0 0 0 0 0 0 0 0 0 0 0 0 87 58 65 1 0 0 59 95 86 73 83 38 100 100 100 100 100 100 100 100 100 100 90 100 100 100 100 100
0 0 0 0 0 0 0 0 0 0 0 0 0 0 0 0 0 0 0 0 0 0 11 98 6 12 14 91 100 100 99 91 100 63 40 100 100 100 100 100 100 100 100 100 100 100 100 100 100
0 0 0 0 0 0 0 0 0 0 0 0 0 0 0 0 0 0 0 0 0 0 0 0 4 0 20 42 64 75 70 34 95 88 20 92 100 100 100 100 100 100 100 100 100 100 100 97 100
0 0 0 0 0 0 0 0 0 0 0 0 0 0 0 0 0 0 0 0 0 0 0 0 2 0 2 2 48 81 96 24 53 97 4 95 96 100 100 100 100 100 100 100 100 100 100 80 100
0 0 0 0 0 0 2 14 0 0 0 0 0 0 0 0 0 0 0 0 0 0 0 0 3 12 2 67 18 56 14 4 2 0 3 5 11 56 100 100 100 100 100 100 100 98 96 82 88
0 0 0 0 0 2 4 3 0 0 5 0 0 0 0 0 0 0 0 0 0 0 0 0 0 32 7 71 100 28 5 2 0 0 0 63 100 100 98 98 100 100 100 100 100 100 76 100 100
0 1 0 0 0 0 0 2 0 0 0 0 0 0 0 0 0 0 0 0 0 0 0 0 16 61 57 48 100 99 63 12 0 8 0 0 10 84 100 100 100 100 100 100 100 98 100 100 95
4 5 4 5 5 4 0 3 0 1 1 0 0 0 0 0 0 0 0 0 0 0 0 0 0 28 100 76 72 100 100 100 36 0 1 39 10 12 100 100 100 100 100 100 100 100 93 81 66
0 4 10 96 6 4 4 5 0 0 0 4 0 0 0 0 0 0 0 0 0 0 0 0 0 0 23 100 93 100 100 100 100 37 2 26 1 3 46 100 100 100 100 100 100 90 99 100 98
5 5 5 92 6 81 8 0 0 10 100 7 41 19 6 0 0 0 0 0 0 0 0 0 0 0 1 18 93 91 94 100 99 100 36 92 5 4 80 18 100 100 100 100 100 100 100 100 100
10 14 8 57 89 78 4 5 5 18 28 43 34 46 91 4 0 0 0 0 0 0 0 0 0 0 5 5 12 56 70 100 100 100 100 99 84 38 98 66 70 100 100 100 100 100 100 100 100
40 29 92 96 100 99 69 7 21 5 72 86 100 90 89 97 49 2 0 0 0 0 1 4 0 0 0 69 1 3 28 55 100 100 100 84 58 98 100 98 53 78 100 100 100 100 100 100 100
100 82 100 100 72 100 100 23 89 60 99 20 99 100 100 88 94 5 3 0 3 46 78 5 44 3 2 0 0 0 0 32 45 100 100 100 73 100 100 100 90 44 100 100 100 100 100 100 100

GFSSGP_prec_cloud_174.txt.gz
Cloud_Cover
5 5 5 5 3 4 5 0 4 5 16 13 48 100 100 100 100 100 16 4 5 16 5 27 38 5 19 50 88 5 23 35 5 1 8 5 0 0 0 0 0 0 2 0 0 5 5 3 0
1 2 5 5 4 5 12 5 0 5 10 37 22 5 70 87 100 100 100 76 9 5 5 5 4 3 7 62 100 26 16 5 5 99 36 7 5 4 0 0 0 0 5 0 1 5 2 0 0
90 0 0 5 5 39 19 9 6 2 5 5 14 83 27 6 5 31 100 100 76 28 6 5 28 34 7 59 82 96 94 62 9 6 93 96 4 4 82 4 0 0 4 0 0 4 0 0 0
6 21 9 5 1 4 5 5 5 5 4 6 16 99 61 5 0 5 56 100 100 100 96 37 5 13 100 99 100 28 21 12 20 98 16 99 100 100 100 5 0 3 0 0 0 2 5 0 0
6 5 5 5 0 0 4 0 3 5 5 2 38 99 96 5 5 1 0 37 100 99 91 100 100 46 96 100 100 76 14 5 24 6 46 100 100 100 72 5 2 3 0 2 0 0 1 0 0
86 87 47 0 0 0 0 0 0 5 0 2 5 6 82 97 8 0 0 0 2 1 0 17 100 100 80 100 100 100 100 9 96 100 99 48 33 61 20 5 5 4 0 16 0 0 0 0 0
100 100 100 100 2 0 0 0 0 0 0 0 1 5 5 9 79 21 5 12 0 0 0 2 2 23 100 100 100 100 28 11 27 5 64 60 32 5 5 5 5 3 4 0 0 0 0 0 0
100 73 83 81 6 0 0 0 0 0 0 0 0 0 0 2 5 5 1 2 30 14 7 1 0 0 4 0 3 26 99 95 50 14 5 5 5 5 5 5 5 5 2 0 0 0 0 0 0
95 17 9 5 68 1 0 0 0 0 0 0 0 0 0 0 0 0 0 0 34 45 32 14 7 5 3 0 4 14 23 74 100 100 100 99 58 56 6 5 5 0 2 6 16 62 70 3 0
100 51 12 5 1 0 0 0 0 0 0 0 0 0 0 0 0 0 0 0 1 98 64 54 37 4 5 5 0 0 0 5 4 24 98 100 100 100 100 82 69 18 9 56 100 100 22 32 2
8 2 0 0 0 0 0 0 0 0 0 0 0 0 0 0 0 0 0 0 0 3 91 68 93 29 1 0 0 0 0 0 5 2 0 5 10 23 76 57 7 0 3 5 91 8 10 5 5
0 0 0 0 0 0 0 0 0 0 0 0 0 0 0 0 0 0 0 0 0 0 0 58 95 90 22 0 0 0 0 0 0 5 2 0 5 7 5 5 5 0 0 71 82 100 5 1 4
0 0 0 0 0 0 0 0 0 0 0 0 0 0 0 0 0 0 0 0 0 0 0 0 74 89 61 7 0 0 0 0 5 5 1 5 61 65 35 5 5 2 0 46 87 8 2 4 10
0 0 0 0 0 0 0 0 0 0 0 0 0 0 0 0 0 0 0 0 0 0 0 0 0 0 49 62 10 1 0 0 0 2 5 6 81 94 100 8 34 6 2 1 2 4 2 4 5
0 0 0 0 0 0 0 0 0 0 0 0 0 0 0 0 0 0 0 0 0 0 0 0 0 0 0 17 56 27 8 0 0 0 22 54 77 100 100 91 99 58 5 5 4 5 0 5 6
0 0 0 0 0 0 0 0 0 0 0 0 0 0 0 0 0 0 0 0 0 0 0 0 0 0 0 0 6 20 42 17 2 0 12 54 5 68 100 100 92 82 45 32 77 56 29 14 63
0 0 0 0 0 0 0 0 0 0 0 0 0 0 0 0 0 0 0 0 0 0 0 0 0 0 0 0 0 0 7 38 30 2 0 4 5 5 10 54 99 80 74 100 100 100 100 100 100
0 0 0 0 0 0 0 0 0 0 0 0 0 0 0 0 0 0 0 0 0 0 0 0 0 0 0 0 0 28 6 100 93 50 0 5 2 15 93 10 11 73 100 100 98 29 11 85 44
0 0 0 0 0 0 0 0 0 0 0 0 0 0 0 0 0 0 0 0 0 0 0 0 0 0 0 0 0 100 37 100 100 100 60 15 13 17 91 30 31 81 100 100 98 83 5 95 100
0 0 0 0 0 0 0 0 0 0 0 0 0 0 0 0 0 0 0 0 0 0 0 0 0 0 0 0 0 43 64 100 100 71 100 97 84 15 10 68 75 69 71 100 100 100 99 72 99
0 0 0 0 0 0 0 0 0 0 0 0 0 0 0 0 0 0 0 0 0 0 0 0 0 0 0 0 0 12 98 100 99 100 100 95 95 52 28 28 59 80 100 96 87 100 100 88 100
0 0 0 0 0 0 0 0 0 0 0 0 0 0 0 0 0 0 0 0 0 0 0 0 0 0 0 0 0 0 0 0 0 10 100 100 83 100 91 44 24 100 84 98 100 100 100 95 68
0 0 0 0 0 0 0 3 0 0 0 0 0 0 0 0 0 0 0 0 0 0 0 0 0 0 0 0 0 0 0 0 0 70 97 77 100 100 99 79 74 66 48 80 100 100 93 83 84
0 0 0 1 4 2 2 3 0 0 0 0 0 0 1 4 1 0 0 0 0 0 0 0 0 0 0 0 0 0 0 1 44 84 90 63 80 47 100 97 46 97 24 87 90 96 50 8 89
5 5 4 6 68 50 4 5 0 0 0 0 0 0 0 0 0 0 0 0 0 0 0 0 0 0 0 0 0 0 5 11 14 98 42 100 100 98 100 80 7 91 27 12 8 5 46 50 82
4 5 78 99 24 5 3 1 3 0 0 0 4 0 0 0 0 0 0 0 0 0 0 0 0 0 0 0 0 64 100 91 21 52 86 96 53 67 95 96 12 5 0 0 5 5 28 85 46
53 68 52 48 61 66 71 54 14 8 5 84 100 96 76 8 5 1 1 0 0 0 0 0 0 0 0 0 0 0 0 66 94 15 33 34 92 38 100 99 43 11 3 5 0 23 82 100 100
12 72 85 91 87 84 38 73 80 5 56 99 100 100 100 68 5 5 5 4 4 2 0 1 0 0 0 0 0 0 0 0 7 99 84 94 97 95 100 90 72 56 89 68 36 100 100 100 72
100 86 94 97 86 100 84 13 71 24 67 92 96 77 81 100 75 46 14 74 5 4 5 0 4 5 5 3 1 0 0 0 0 0 66 100 100 88 39 37 97 100 47 99 99 100 100 88 19
9 78 100 100 80 92 83 40 94 15 100 100 100 100 100 98 75 88 36 5 5 51 14 5 5 16 84 5 41 1 0 0 0 0 0 48 100 69 98 69 68 100 100 100 100 100 100 100 100